Location: Clover
(42.5131°N, 114.6874°W)
Time: 04:10:02
(UTC+00:00)

S-56A Canister/Altair - All Passes

Search period start: 12 November 2024 00:00
Search period end: 22 November 2024 00:00
Orbit: 635 x 2487 km, 38.9° (Epoch: 11 November)

Date Brightness Start Highest point End Pass type
(mag) Time Alt. Az. Time Alt. Az. Time Alt. Az.
12 Nov - 04:39:00 10° SE 04:41:57 11° ESE 04:45:11 10° ESE night (unlit)
12 Nov - 06:35:04 10° SSW 06:44:28 41° SE 06:57:02 10° E visible
12 Nov - 08:37:33 10° WSW 08:49:23 71° SSE 09:04:22 10° E visible
12 Nov - 10:42:12 10° W 10:55:53 76° S 11:10:48 10° ESE visible
12 Nov - 12:47:57 10° W 13:02:05 54° SSW 13:15:24 10° SE visible
12 Nov - 14:55:51 10° W 15:06:27 24° SW 15:15:56 10° S daylight
13 Nov - 06:01:25 10° SSW 06:10:01 36° SE 06:21:36 10° E night (unlit)
13 Nov - 08:03:21 10° WSW 08:14:29 68° SSE 08:29:10 10° E visible
13 Nov - 10:07:39 10° W 10:20:46 77° S 10:35:54 10° ESE visible
13 Nov - 12:13:05 10° W 12:27:07 58° SSW 12:40:59 10° SE visible
13 Nov - 14:20:19 10° W 14:31:53 28° SW 14:42:24 10° S daylight
14 Nov - 05:27:56 10° SSW 05:35:42 31° SE 05:46:06 10° E night (unlit)
14 Nov - 07:29:16 10° WSW 07:39:41 64° SSE 07:53:56 10° E visible
14 Nov - 09:33:11 10° W 09:45:42 77° S 10:00:52 10° E visible
14 Nov - 11:38:19 10° W 11:52:07 61° SSW 12:06:26 10° SE visible
14 Nov - 13:44:58 10° W 13:57:13 32° SW 14:08:39 10° SSE visible
15 Nov - 04:54:35 10° S 05:01:28 25° SE 05:10:30 10° E night (unlit)
15 Nov - 06:55:16 10° SW 07:05:00 59° SSE 07:18:39 10° E visible
15 Nov - 08:58:49 10° W 09:10:41 77° S 09:25:46 10° E visible
15 Nov - 11:03:39 10° W 11:17:04 65° SSW 11:31:44 10° ESE visible
15 Nov - 13:09:49 10° W 13:22:28 36° SW 13:34:40 10° SSE visible
15 Nov - 15:24:24 10° WSW 15:25:56 10° WSW 15:27:27 10° SW daylight
16 Nov - 04:21:29 10° S 04:27:20 20° SE 04:34:46 10° E night (unlit)
16 Nov - 06:21:23 10° SW 06:30:24 54° SSE 06:43:20 10° E night (unlit)
16 Nov - 08:24:33 10° WSW 08:35:43 76° S 08:50:35 10° E visible
16 Nov - 10:29:05 10° W 10:42:01 67° SSW 10:56:55 10° ESE visible
16 Nov - 12:34:49 10° W 12:47:39 40° SW 13:00:32 10° SSE visible
16 Nov - 14:45:34 10° WSW 14:51:29 13° SW 14:57:14 10° SSW daylight
17 Nov - 03:48:45 10° SSE 03:53:17 16° SE 03:58:46 10° E night (unlit)
17 Nov - 05:47:35 10° SW 05:55:55 49° SSE 06:07:59 10° E night (unlit)
17 Nov - 07:50:21 10° WSW 08:00:50 75° S 08:15:20 10° E visible
17 Nov - 09:54:36 10° W 10:06:59 70° SSW 10:22:00 10° ESE visible
17 Nov - 11:59:57 10° W 12:12:47 44° SW 12:26:13 10° SSE visible
17 Nov - 14:09:01 10° W 14:16:58 17° SW 14:24:44 10° SSW daylight
18 Nov - 03:16:52 10° SE 03:19:18 11° SE 03:21:59 10° ESE night (unlit)
18 Nov - 05:13:52 10° SW 05:21:33 43° SE 05:32:38 10° E night (unlit)
18 Nov - 07:16:15 10° WSW 07:26:03 72° S 07:40:03 10° E visible
18 Nov - 09:20:13 10° W 09:32:00 72° SSW 09:46:57 10° ESE visible
18 Nov - 11:25:13 10° W 11:37:52 48° SSW 11:51:45 10° SE visible
18 Nov - 13:33:08 10° W 13:42:23 20° SW 13:51:35 10° S visible
19 Nov - 04:40:17 10° SSW 04:47:17 37° SE 04:57:16 10° E night (unlit)
19 Nov - 06:42:13 10° WSW 06:51:21 69° SSE 07:04:44 10° E night (unlit)
19 Nov - 08:45:55 10° W 08:57:03 73° S 09:11:49 10° ESE visible
19 Nov - 10:50:35 10° W 11:02:57 51° SSW 11:17:08 10° SE visible
19 Nov - 12:57:38 10° W 13:07:43 23° SW 13:18:02 10° S visible
20 Nov - 04:06:48 10° SSW 04:13:07 31° SE 04:21:54 10° E visible
20 Nov - 06:08:16 10° WSW 06:16:45 66° SSE 06:29:25 10° E night (unlit)
20 Nov - 08:11:41 10° W 08:22:09 74° S 08:36:37 10° ESE visible
20 Nov - 10:16:04 10° W 10:28:00 54° SSW 10:42:23 10° SE visible
20 Nov - 12:22:24 10° W 12:33:01 27° SW 12:44:12 10° S visible
21 Nov - 03:33:28 10° S 03:39:01 25° SE 03:46:29 10° E visible
21 Nov - 05:34:23 10° WSW 05:42:15 61° SSE 05:54:07 10° E night (unlit)
21 Nov - 07:37:33 10° W 07:47:20 75° S 08:01:22 10° ESE visible
21 Nov - 09:41:39 10° W 09:53:05 57° SSW 10:07:31 10° SE visible
21 Nov - 11:47:24 10° W 11:58:16 30° SW 12:10:08 10° SSE visible
